Temp
80 77 81 80 77 75 75 74 74 74 74 74 73 73 74 74 74 75 75 74 74 79 80 79 78 81 75 79 74 74 74 74 74 74 74 74 73 73 73 72 72 71 71 71 72 71 71 72 72 71 72 73 73 80 85 85 86 86 89 87 86 83
83 80 75 74 73 78 74 73 74 75 75 74 74 75 76 78 78 79 75 77 81 81 81 81 81 78 81 78 77 74 74 74 74 74 74 73 73 73 73 72 71 71 70 71 69 80 78 73 70 71 73 72 78 85 84 85 85 88 87 87 85 76
78 75 72 73 76 72 74 72 75 74 73 74 76 79 80 81 82 80 81 83 81 81 83 83 81 79 82 76 77 74 74 74 74 74 73 73 73 73 72 72 70 70 71 68 78 83 84 85 83 71 72 78 84 86 85 84 85 86 88 86 84 73
75 75 72 77 72 73 71 76 74 74 72 73 78 81 81 81 81 82 81 81 81 82 82 82 78 77 77 79 77 74 73 73 73 73 73 75 73 73 72 71 71 71 72 79 84 84 86 87 86 84 83 84 85 84 84 84 87 87 86 87 84 72
80 75 77 75 77 76 75 75 75 73 76 75 78 80 80 81 81 81 81 81 85 82 82 82 81 81 83 82 79 79 77 77 79 79 73 80 78 78 76 80 79 78 83 82 83 83 84 85 84 85 84 84 83 84 85 85 87 88 86 84 78 72
81 79 76 77 79 77 74 78 77 76 74 73 76 78 80 80 80 80 82 81 81 80 81 80 79 80 81 81 81 83 82 82 83 82 80 83 84 81 78 79 82 82 82 82 81 82 83 84 84 85 86 84 84 83 86 87 87 85 85 83 77 72
77 77 78 80 79 74 73 71 71 72 75 72 69 74 76 79 79 79 79 80 79 79 79 78 77 78 80 81 82 82 83 82 82 82 82 83 81 81 83 82 82 81 82 82 83 82 83 83 84 85 84 85 85 85 85 86 86 86 85 83 77 72
78 78 79 81 76 75 76 74 71 72 74 73 73 72 73 77 78 78 78 79 78 79 79 77 75 78 79 81 81 81 82 82 82 83 83 83 81 81 81 81 81 82 82 83 83 82 83 84 83 84 84 83 84 84 84 85 85 84 84 83 80 73
79 80 80 80 79 77 72 71 71 72 73 71 72 69 73 77 78 79 79 80 80 77 77 75 74 76 81 79 79 80 81 81 81 83 82 81 81 79 80 81 81 81 82 82 82 82 83 83 83 83 84 84 84 84 84 84 84 84 85 84 81 76
82 83 81 80 73 71 75 72 71 69 72 71 72 73 76 79 80 79 80 79 79 78 74 71 72 73 81 78 77 77 77 78 79 80 80 79 80 80 80 81 81 81 83 81 82 82 82 83 85 83 84 84 83 84 84 85 85 85 85 83 81 77
84 81 81 81 72 72 75 74 72 71 73 73 80 78 77 78 78 78 78 78 73 71 69 69 69 68 68 73 76 71 70 74 75 70 74 75 77 74 77 80 81 82 81 82 82 82 83 83 84 85 83 85 83 83 84 84 85 86 85 84 83 80
82 79 80 83 79 73 74 72 73 77 83 81 79 79 78 78 78 78 71 68 70 70 69 68 66 67 69 71 68 68 68 70 70 68 69 67 67 70 71 78 80 81 81 82 81 82 83 84 84 86 85 84 84 83 84 83 84 84 84 84 83 82
79 77 79 79 81 79 77 81 83 83 82 80 80 79 78 76 76 69 68 70 68 68 67 67 67 69 70 70 74 72 71 71 71 69 69 69 69 69 71 75 78 80 80 81 81 81 81 80 83 84 85 86 85 86 87 86 83 83 84 83 83 83
77 73 77 80 79 82 82 82 82 82 81 80 80 78 75 75 74 71 70 71 70 68 68 67 67 67 70 71 72 73 73 72 71 68 70 70 70 68 70 73 79 80 79 80 80 80 79 77 80 83 84 86 85 84 85 87 83 82 82 81 83 83
76 72 78 79 79 81 82 83 83 81 80 79 78 76 73 73 74 75 74 69 71 69 70 71 70 68 70 73 73 73 73 72 69 72 73 72 69 72 71 77 79 81 80 80 81 81 81 80 78 79 80 80 83 84 83 84 83 83 83 82 82 82
78 76 76 79 80 80 81 80 81 79 79 78 77 76 73 73 74 74 75 73 70 71 71 70 70 71 70 72 74 74 76 75 75 74 74 71 70 76 75 76 78 78 77 79 80 79 79 78 78 79 79 78 79 80 81 82 80 82 83 83 83 83
77 78 77 79 79 79 78 79 79 78 78 78 77 77 75 74 74 75 75 76 74 74 74 73 73 73 72 72 73 74 76 75 74 73 72 71 69 70 75 75 74 77 78 78 80 79 77 77 77 76 77 76 76 74 77 78 80 80 83 76 73 71
77 77 78 78 78 77 77 77 78 77 76 76 75 74 75 77 76 76 78 76 74 75 75 76 75 73 73 73 74 73 72 73 74 74 74 72 71 73 73 72 74 76 78 78 79 79 77 77 77 77 76 75 73 74 76 77 77 77 77 70 72 72
74 76 77 76 75 74 73 73 74 75 74 74 75 76 78 78 76 76 77 76 75 75 76 75 75 75 74 74 75 73 71 71 73 73 73 74 72 73 71 73 74 74 76 79 79 78 77 76 76 76 76 73 74 73 76 76 75 76 73 74 73 73
71 75 76 74 74 73 72 73 74 75 77 77 78 78 79 79 78 78 78 78 77 75 76 75 76 75 74 73 73 72 71 72 71 69 70 71 74 72 69 70 73 74 74 76 78 78 77 76 75 73 72 74 75 74 74 75 75 77 73 72 75 76
71 74 74 73 72 72 73 74 75 77 77 78 79 78 78 79 80 79 78 79 78 78 77 76 76 76 74 74 74 73 72 72 72 71 70 68 72 71 69 71 73 74 73 73 75 77 76 77 73 72 73 73 73 76 74 75 75 78 79 79 80 78
73 73 74 75 74 73 76 78 78 79 79 79 79 79 78 79 77 77 77 77 77 78 77 77 77 76 75 74 73 73 72 72 71 72 72 72 73 72 72 72 73 72 75 74 73 75 75 75 72 71 70 70 72 74 75 75 77 78 79 79 79 78
74 74 75 75 75 76 78 78 79 79 80 80 82 81 82 80 80 80 77 78 78 77 78 78 78 76 75 74 74 73 73 73 72 73 72 72 72 71 72 71 72 72 72 73 72 73 73 70 73 73 73 70 66 66 70 72 74 75 77 77 79 80
75 77 76 76 78 79 79 78 79 78 79 80 78 77 77 78 79 79 78 78 79 77 78 78 79 79 78 76 75 76 76 75 74 73 73 72 71 71 71 71 71 71 72 69 71 71 73 73 73 72 67 65 69 66 59 66 70 73 77 77 78 80
76 78 78 77 79 79 77 76 76 76 77 76 77 77 77 77 77 78 78 78 78 78 79 78 78 78 79 77 77 77 77 76 75 74 76 75 73 72 73 72 72 71 72 71 70 68 70 72 72 75 71 70 67 64 59 66 69 69 75 77 78 80
77 79 78 78 78 78 77 76 75 74 73 74 73 74 74 74 75 76 78 77 79 79 78 78 79 79 79 78 76 76 76 76 76 76 76 76 77 76 74 73 73 73 70 72 71 70 69 71 72 73 72 72 66 62 65 69 71 63 72 73 76 80
78 79 79 78 78 77 76 77 76 76 76 75 74 75 77 77 76 78 77 77 77 77 78 78 78 79 78 78 77 76 75 76 77 76 76 76 75 75 77 78 76 75 73 70 71 69 68 70 72 72 73 73 73 72 73 70 67 68 65 69 73 74
78 79 78 78 77 78 77 77 76 76 77 77 76 74 74 75 76 77 76 76 77 77 77 78 77 78 78 78 77 76 76 76 76 77 78 77 76 76 76 76 75 75 74 72 69 68 68 72 70 70 72 72 71 73 74 74 75 70 69 65 66 72
77 78 78 77 77 78 78 77 77 77 76 77 76 75 76 76 76 76 74 75 76 78 77 76 78 77 77 78 77 77 76 76 76 76 78 77 76 76 74 74 73 72 71 71 71 70 68 70 72 71 71 71 73 74 74 74 74 75 71 67 66 65
76 77 77 77 77 77 77 77 77 76 75 75 75 75 76 74 74 75 74 74 75 75 77 76 76 77 77 78 77 77 77 75 75 76 76 76 75 74 74 74 73 73 72 71 72 72 72 72 74 73 74 73 72 73 73 72 72 73 74 73 67 67
76 77 77 77 77 76 77 78 77 76 75 74 74 74 73 72 74 74 73 74 75 75 76 76 76 75 75 76 76 77 75 75 75 75 76 76 75 76 74 74 74 73 73 72 73 73 72 72 72 71 72 74 74 74 72 71 71 73 72 70 69 68
74 74 77 77 76 76 77 77 77 76 76 75 74 74 73 72 73 73 73 73 75 75 75 75 75 75 74 75 76 75 75 75 75 75 75 76 76 76 76 75 74 74 74 73 73 73 72 71 71 73 72 73 74 75 75 74 75 74 73 72 71 70
71 74 74 75 75 75 75 76 76 76 76 76 75 75 74 73 74 74 74 74 74 74 74 74 74 74 74 74 75 74 75 75 74 74 74 76 75 75 76 76 75 74 73 73 73 73 73 72 73 72 72 71 75 76 75 76 76 75 75 75 72 70
67 71 73 75 74 74 74 75 76 76 76 77 75 75 75 74 74 75 75 74 74 74 74 73 74 73 74 75 75 74 74 73 74 74 74 74 74 75 76 77 75 73 73 74 74 73 73 72 73 74 75 75 75 76 76 76 76 76 74 74 73 72
63 63 68 72 73 73 75 75 75 76 76 77 76 76 76 76 75 75 75 75 75 75 75 75 74 74 74 73 73 74 73 73 73 73 73 73 74 74 75 77 75 73 74 75 74 74 73 73 73 74 74 75 74 75 76 78 78 77 79 77 76 74
62 62 63 68 71 72 73 73 74 74 75 76 76 76 76 75 75 74 74 75 74 74 75 75 74 74 73 74 73 73 73 73 73 73 73 74 74 75 74 74 74 73 73 75 73 72 73 73 72 72 73 74 75 75 75 77 78 77 78 77 77 76
62 63 65 67 70 71 71 70 71 73 74 74 73 74 74 73 73 74 75 75 74 74 74 74 73 74 73 73 73 73 73 72 72 73 73 73 73 74 73 74 73 72 72 73 73 73 73 73 72 73 73 73 74 74 74 75 76 75 75 76 77 77
MSLP
1014.75 1015.23 1015.03 1015.47 1015.71 1016.19 1016.51 1016.63 1016.75 1016.87 1017.03 1017.23 1017.39 1017.63 1017.83 1017.87 1017.83 1017.91 1017.91 1018.07 1018.23 1018.19 1018.31 1018.47 1018.63 1018.59 1018.91 1018.91 1019.11 1019.23 1019.31 1019.43 1019.51 1019.63 1019.75 1019.83 1019.87 1019.95 1020.03 1020.07 1020.15 1020.15 1020.15 1020.11 1020.07 1020.07 1020.07 1020.07 1020.03 1020.03 1019.99 1019.99 1019.95 1019.63 1019.19 1019.27 1019.31 1019.27 1019.03 1019.47 1019.43 1020.07
1014.47 1015.03 1015.71 1016.03 1016.51 1016.39 1017.03 1017.03 1016.99 1016.91 1017.03 1017.31 1017.59 1017.63 1017.75 1017.67 1017.67 1017.67 1017.91 1017.99 1017.95 1018.07 1018.15 1018.27 1018.39 1018.75 1018.59 1018.87 1019.07 1019.27 1019.35 1019.47 1019.59 1019.67 1019.75 1019.83 1019.87 1019.95 1020.03 1020.11 1020.19 1020.23 1020.19 1020.07 1019.99 1019.63 1019.79 1019.95 1020.03 1019.99 1019.95 1019.91 1019.79 1019.23 1019.31 1019.35 1019.39 1019.23 1019.43 1019.47 1019.55 1020.63
1015.07 1015.55 1016.19 1016.39 1016.31 1016.75 1016.83 1017.03 1016.75 1016.83 1017.19 1017.51 1017.47 1017.39 1017.35 1017.43 1017.43 1017.59 1017.67 1017.67 1017.83 1018.03 1017.99 1018.11 1018.35 1018.63 1018.43 1018.83 1019.15 1019.31 1019.43 1019.51 1019.59 1019.67 1019.71 1019.75 1019.79 1019.87 1019.99 1020.11 1020.19 1020.23 1020.11 1019.99 1019.55 1019.23 1019.15 1019.15 1019.51 1019.87 1019.87 1019.71 1019.35 1019.15 1019.27 1019.43 1019.47 1019.47 1019.39 1019.59 1019.91 1020.83
1015.63 1015.95 1016.35 1015.83 1016.51 1016.71 1017.07 1016.67 1016.83 1016.99 1017.63 1017.83 1017.31 1017.19 1017.27 1017.39 1017.39 1017.47 1017.63 1017.79 1017.87 1017.95 1017.99 1018.15 1018.55 1018.75 1018.75 1018.95 1019.19 1019.35 1019.47 1019.55 1019.59 1019.59 1019.59 1019.55 1019.67 1019.75 1019.87 1019.99 1019.99 1019.99 1019.87 1019.35 1019.03 1019.11 1018.87 1018.91 1019.03 1019.27 1019.27 1019.23 1019.27 1019.27 1019.39 1019.47 1019.35 1019.43 1019.51 1019.75 1020.19 1020.99
1015.31 1016.03 1015.87 1015.99 1016.11 1016.55 1016.83 1016.83 1017.03 1017.39 1017.39 1017.59 1017.31 1017.23 1017.31 1017.35 1017.43 1017.59 1017.67 1017.75 1017.67 1017.99 1018.03 1018.11 1018.39 1018.51 1018.35 1018.51 1018.91 1019.15 1019.39 1019.39 1019.23 1019.31 1019.47 1019.15 1019.27 1019.47 1019.55 1019.47 1019.63 1019.59 1019.23 1019.27 1019.27 1019.11 1018.99 1018.95 1019.07 1019.07 1019.15 1019.19 1019.35 1019.39 1019.31 1019.31 1019.39 1019.43 1019.59 1019.91 1020.67 1021.07
1015.43 1015.51 1015.75 1015.95 1015.95 1016.39 1016.75 1016.95 1017.07 1017.23 1017.55 1018.07 1017.59 1017.43 1017.31 1017.39 1017.51 1017.67 1017.67 1017.79 1017.87 1018.15 1018.15 1018.27 1018.43 1018.47 1018.51 1018.59 1018.63 1018.59 1018.63 1018.63 1018.75 1018.95 1018.99 1018.75 1018.71 1018.91 1019.31 1019.31 1019.11 1019.15 1019.23 1019.19 1019.35 1019.23 1019.11 1019.03 1019.07 1019.07 1019.03 1019.23 1019.27 1019.43 1019.27 1019.27 1019.47 1019.71 1019.75 1020.11 1020.83 1021.15
1015.63 1015.63 1015.71 1015.67 1016.03 1016.67 1016.87 1017.15 1017.55 1017.63 1017.63 1018.03 1018.19 1018.03 1017.79 1017.55 1017.63 1017.75 1017.83 1017.91 1018.19 1018.23 1018.23 1018.39 1018.55 1018.51 1018.55 1018.51 1018.47 1018.47 1018.51 1018.55 1018.71 1018.75 1018.79 1018.63 1018.83 1018.87 1018.75 1018.87 1019.07 1019.15 1019.15 1019.15 1019.11 1019.15 1019.11 1019.11 1019.03 1019.15 1019.11 1019.23 1019.27 1019.43 1019.43 1019.51 1019.63 1019.75 1019.87 1020.11 1020.79 1021.15
1015.71 1015.71 1015.79 1015.71 1016.43 1016.75 1016.87 1017.27 1017.59 1017.99 1018.11 1017.87 1017.91 1018.31 1018.23 1017.87 1017.83 1017.91 1017.99 1017.99 1018.11 1018.15 1018.19 1018.43 1018.79 1018.47 1018.47 1018.31 1018.47 1018.39 1018.39 1018.51 1018.55 1018.47 1018.51 1018.47 1018.83 1018.83 1018.83 1018.87 1018.83 1018.87 1018.95 1018.99 1019.11 1019.07 1018.99 1018.95 1019.15 1019.07 1019.19 1019.31 1019.35 1019.47 1019.51 1019.55 1019.67 1019.79 1019.87 1020.11 1020.59 1021.11
1015.63 1015.71 1015.75 1015.99 1016.47 1016.79 1017.67 1018.03 1017.71 1018.11 1018.19 1018.31 1018.47 1018.67 1018.59 1017.95 1017.99 1017.91 1018.03 1017.99 1018.03 1018.31 1018.31 1018.43 1018.79 1018.83 1018.27 1018.51 1018.63 1018.63 1018.63 1018.63 1018.55 1018.43 1018.51 1018.71 1018.67 1018.95 1018.91 1018.83 1018.79 1018.87 1018.83 1018.95 1019.03 1019.07 1018.99 1018.99 1019.03 1019.07 1019.15 1019.27 1019.35 1019.43 1019.47 1019.59 1019.63 1019.75 1019.79 1020.03 1020.35 1020.91
1015.43 1015.55 1015.83 1016.27 1017.07 1017.31 1017.23 1017.91 1018.11 1018.11 1018.27 1018.83 1018.59 1018.47 1018.19 1017.91 1017.87 1017.87 1017.95 1017.99 1018.03 1018.27 1018.71 1018.99 1019.07 1019.15 1018.31 1018.75 1018.95 1019.07 1019.03 1018.87 1018.87 1018.67 1018.75 1018.91 1018.79 1018.87 1018.95 1018.83 1018.83 1018.83 1018.95 1019.07 1019.07 1018.99 1018.95 1019.03 1018.99 1019.23 1019.15 1019.27 1019.39 1019.47 1019.43 1019.47 1019.55 1019.63 1019.75 1019.99 1020.31 1020.87
1015.35 1015.59 1015.83 1016.19 1017.35 1017.67 1017.31 1017.51 1017.71 1017.95 1018.15 1018.35 1017.35 1017.67 1017.91 1017.87 1017.91 1018.03 1018.07 1018.15 1018.63 1019.07 1019.51 1019.63 1019.59 1019.43 1019.35 1019.11 1019.15 1019.75 1019.83 1019.35 1019.35 1019.67 1019.43 1019.31 1019.03 1019.39 1019.03 1018.79 1018.71 1018.75 1018.87 1018.91 1019.03 1018.95 1018.87 1018.95 1018.91 1019.07 1019.23 1019.19 1019.35 1019.35 1019.43 1019.39 1019.51 1019.59 1019.75 1019.95 1020.07 1020.47
1015.43 1015.87 1015.87 1015.87 1016.43 1017.51 1017.59 1017.67 1017.67 1017.23 1016.67 1016.95 1017.39 1017.51 1017.71 1017.79 1017.91 1018.07 1018.75 1019.03 1019.03 1019.23 1019.63 1019.79 1019.55 1019.31 1019.51 1019.47 1020.11 1019.95 1019.59 1019.63 1019.67 1019.79 1020.07 1019.99 1019.79 1019.71 1019.67 1018.99 1018.83 1018.71 1018.75 1018.75 1018.91 1018.87 1018.75 1018.83 1018.91 1018.91 1019.03 1019.23 1019.27 1019.39 1019.43 1019.55 1019.59 1019.67 1019.75 1019.87 1020.03 1020.23
1015.75 1016.11 1016.07 1016.11 1016.11 1016.55 1016.95 1016.59 1016.39 1016.47 1016.71 1017.15 1017.19 1017.43 1017.59 1017.87 1018.07 1018.95 1019.03 1019.15 1019.55 1019.95 1020.11 1019.91 1019.19 1019.15 1019.43 1019.47 1019.27 1019.35 1019.51 1019.47 1019.51 1019.79 1020.03 1019.99 1019.87 1019.91 1019.71 1019.31 1019.03 1018.83 1018.95 1018.87 1018.91 1019.03 1019.07 1019.15 1019.03 1018.99 1018.95 1019.11 1019.15 1019.19 1019.15 1019.35 1019.55 1019.71 1019.75 1019.87 1019.95 1020.07
1015.91 1016.43 1016.27 1015.99 1016.07 1015.95 1016.07 1016.15 1016.27 1016.43 1016.75 1016.99 1017.15 1017.51 1017.79 1017.99 1018.31 1018.83 1019.03 1019.15 1019.55 1019.79 1019.87 1019.35 1018.79 1019.11 1019.23 1019.39 1019.39 1019.39 1019.35 1019.43 1019.55 1019.87 1019.71 1019.91 1020.31 1020.31 1019.83 1019.47 1018.91 1018.79 1019.03 1018.95 1019.15 1019.11 1019.43 1019.71 1019.47 1019.23 1019.07 1018.95 1019.03 1019.11 1019.23 1019.19 1019.59 1019.83 1019.91 1020.03 1019.91 1019.99
1015.71 1016.59 1015.99 1015.95 1016.03 1015.95 1015.91 1015.91 1016.19 1016.51 1016.87 1017.03 1017.31 1017.63 1017.91 1018.11 1018.35 1018.59 1018.71 1018.91 1019.11 1019.63 1019.43 1018.91 1019.23 1019.39 1019.23 1019.11 1019.19 1019.23 1019.27 1019.27 1019.63 1019.35 1019.19 1019.39 1019.95 1019.67 1019.67 1018.91 1018.79 1018.63 1018.95 1018.91 1018.95 1019.11 1019.15 1019.43 1019.71 1019.71 1019.67 1019.59 1019.43 1019.47 1019.39 1019.39 1019.63 1019.71 1019.79 1019.99 1020.03 1020.03
1015.23 1015.71 1015.83 1015.79 1015.83 1015.99 1016.03 1016.15 1016.35 1016.67 1016.91 1017.11 1017.31 1017.51 1017.91 1018.03 1018.27 1018.47 1018.59 1018.79 1018.87 1018.95 1018.87 1018.87 1019.11 1019.11 1019.11 1019.03 1019.03 1019.07 1018.87 1018.87 1018.91 1019.03 1019.03 1019.43 1019.67 1018.87 1019.03 1018.79 1018.71 1018.79 1019.23 1019.19 1019.15 1019.43 1019.35 1019.67 1019.71 1019.83 1019.87 1019.95 1019.95 1019.87 1019.83 1019.75 1019.95 1019.99 1019.87 1019.95 1020.15 1020.07
1015.19 1015.23 1015.63 1015.71 1015.87 1016.11 1016.23 1016.39 1016.59 1016.79 1016.99 1017.15 1017.39 1017.59 1017.71 1017.95 1018.15 1018.19 1018.35 1018.39 1018.55 1018.47 1018.35 1018.51 1018.59 1018.75 1018.91 1018.99 1018.99 1018.91 1018.75 1018.87 1018.99 1019.11 1019.31 1019.43 1020.03 1019.87 1019.19 1019.15 1019.23 1018.95 1018.99 1019.31 1019.23 1019.55 1019.67 1019.71 1019.83 1020.07 1020.07 1020.23 1020.23 1020.43 1020.27 1020.23 1020.11 1020.11 1019.91 1020.79 1021.19 1021.19
1015.07 1015.27 1015.51 1015.75 1016.03 1016.31 1016.51 1016.67 1016.75 1016.99 1017.27 1017.47 1017.71 1017.79 1017.83 1017.79 1018.03 1018.07 1018.07 1018.23 1018.47 1018.43 1018.27 1018.31 1018.59 1018.67 1018.75 1018.79 1018.79 1018.87 1019.03 1019.03 1018.95 1018.95 1019.11 1019.31 1019.63 1019.39 1019.31 1019.59 1019.31 1019.23 1019.07 1019.15 1019.27 1019.31 1019.71 1019.75 1019.83 1020.07 1020.23 1020.51 1020.67 1020.63 1020.63 1020.47 1020.43 1020.43 1020.79 1021.63 1020.99 1020.99
1015.63 1015.51 1015.71 1015.99 1016.31 1016.71 1016.95 1017.11 1017.23 1017.31 1017.59 1017.67 1017.67 1017.71 1017.67 1017.83 1018.07 1018.11 1018.15 1018.27 1018.35 1018.35 1018.23 1018.31 1018.55 1018.63 1018.75 1018.75 1018.71 1018.83 1019.03 1019.11 1019.03 1019.11 1019.19 1019.27 1019.51 1019.47 1019.59 1019.43 1019.47 1019.51 1019.31 1019.03 1019.11 1019.35 1019.59 1019.87 1019.99 1020.11 1020.39 1020.67 1020.67 1020.75 1020.63 1020.67 1020.67 1020.79 1021.19 1021.23 1021.27 1021.11
1016.19 1015.67 1015.83 1016.27 1016.51 1016.95 1017.23 1017.39 1017.55 1017.47 1017.47 1017.51 1017.51 1017.63 1017.63 1017.71 1017.91 1017.99 1018.15 1018.23 1018.27 1018.31 1018.23 1018.31 1018.35 1018.55 1018.75 1018.87 1018.87 1018.91 1019.11 1019.11 1019.23 1019.63 1019.55 1019.55 1019.35 1019.59 1019.91 1019.99 1019.75 1019.63 1019.63 1019.47 1019.31 1019.43 1019.75 1019.83 1020.11 1020.47 1020.71 1020.67 1020.67 1020.83 1020.99 1020.83 1020.87 1020.87 1021.23 1021.39 1020.99 1020.87
1016.07 1015.79 1016.03 1016.51 1016.83 1017.11 1017.31 1017.31 1017.31 1017.27 1017.35 1017.43 1017.51 1017.63 1017.75 1017.71 1017.75 1017.99 1018.11 1018.11 1018.19 1018.23 1018.31 1018.35 1018.39 1018.51 1018.71 1018.79 1018.75 1018.87 1019.07 1019.11 1019.19 1019.51 1019.63 1019.91 1019.47 1019.59 1019.95 1019.91 1019.63 1019.59 1019.75 1019.87 1019.75 1019.59 1019.75 1019.67 1020.31 1020.79 1020.79 1020.83 1020.87 1020.71 1020.91 1020.91 1020.95 1020.75 1020.71 1020.59 1020.51 1020.63
1015.63 1015.95 1016.07 1016.19 1016.59 1016.95 1016.79 1016.75 1016.87 1016.95 1017.07 1017.27 1017.55 1017.63 1017.79 1017.83 1018.03 1018.19 1018.27 1018.35 1018.31 1018.27 1018.35 1018.43 1018.39 1018.55 1018.67 1018.87 1018.95 1018.95 1019.03 1019.19 1019.27 1019.35 1019.39 1019.39 1019.39 1019.51 1019.67 1019.71 1019.75 1019.87 1019.55 1019.75 1020.03 1019.83 1019.87 1019.91 1020.43 1020.63 1020.99 1021.15 1020.99 1020.91 1020.87 1020.95 1020.91 1020.95 1020.75 1020.71 1020.67 1020.63
1015.51 1015.75 1015.83 1016.11 1016.43 1016.63 1016.43 1016.51 1016.55 1016.79 1016.91 1017.19 1017.07 1017.19 1017.39 1017.71 1017.83 1018.07 1018.31 1018.23 1018.39 1018.35 1018.39 1018.39 1018.43 1018.59 1018.83 1018.91 1018.99 1019.03 1019.07 1019.11 1019.23 1019.23 1019.43 1019.55 1019.55 1019.75 1019.75 1019.83 1019.87 1019.91 1019.95 1019.79 1020.03 1019.91 1019.99 1020.39 1020.23 1020.27 1020.15 1020.59 1021.43 1021.55 1021.39 1021.19 1021.19 1021.19 1021.07 1020.87 1020.67 1020.55
1015.31 1015.35 1015.67 1015.95 1016.07 1016.07 1016.23 1016.55 1016.63 1016.87 1016.99 1017.07 1017.63 1017.83 1017.83 1017.87 1017.99 1018.11 1018.35 1018.35 1018.35 1018.47 1018.43 1018.43 1018.43 1018.47 1018.55 1018.71 1018.83 1018.87 1018.91 1019.03 1019.19 1019.23 1019.35 1019.51 1019.71 1019.75 1019.83 1019.83 1019.87 1019.95 1019.87 1020.39 1020.27 1020.23 1019.95 1020.03 1019.95 1020.27 1021.23 1021.55 1020.71 1021.31 1022.79 1021.47 1021.43 1021.47 1020.99 1020.95 1020.75 1020.67
1015.07 1015.15 1015.43 1015.83 1015.87 1016.07 1016.55 1016.87 1017.03 1017.19 1017.35 1017.67 1017.71 1017.87 1018.03 1018.19 1018.15 1018.27 1018.31 1018.39 1018.51 1018.47 1018.39 1018.51 1018.55 1018.59 1018.67 1018.79 1018.79 1018.75 1018.79 1018.87 1018.99 1019.11 1019.03 1019.19 1019.47 1019.55 1019.63 1019.67 1019.71 1019.83 1019.83 1019.95 1020.27 1020.43 1020.35 1020.27 1020.31 1019.87 1020.39 1020.59 1021.23 1021.67 1022.63 1021.71 1021.55 1021.83 1021.19 1020.99 1020.91 1020.87
1014.87 1014.95 1015.35 1015.71 1015.87 1016.27 1016.63 1016.83 1017.19 1017.59 1017.95 1018.03 1018.23 1018.23 1018.35 1018.47 1018.43 1018.39 1018.35 1018.43 1018.43 1018.47 1018.51 1018.59 1018.55 1018.51 1018.63 1018.75 1018.95 1018.87 1018.91 1018.87 1018.87 1018.91 1018.95 1018.99 1018.99 1019.23 1019.47 1019.59 1019.59 1019.51 1019.99 1019.79 1020.03 1020.35 1020.51 1020.31 1020.27 1020.19 1020.31 1020.55 1021.23 1021.91 1021.51 1021.03 1020.95 1022.67 1021.59 1021.47 1021.11 1020.71
1014.79 1014.87 1015.15 1015.51 1015.83 1016.19 1016.51 1016.75 1017.03 1017.19 1017.35 1017.55 1017.87 1017.91 1017.79 1017.95 1018.11 1018.23 1018.35 1018.51 1018.55 1018.67 1018.59 1018.71 1018.67 1018.67 1018.75 1018.79 1018.91 1018.95 1019.03 1018.95 1018.87 1018.91 1018.95 1018.99 1019.11 1019.19 1019.15 1019.11 1019.23 1019.35 1019.43 1019.99 1020.03 1020.31 1020.39 1020.47 1020.39 1020.35 1020.31 1020.31 1020.43 1020.51 1020.35 1020.83 1021.23 1021.43 1022.31 1021.99 1021.63 1021.71
1014.63 1014.79 1015.07 1015.35 1015.83 1015.95 1016.39 1016.67 1016.95 1017.03 1017.19 1017.39 1017.59 1018.03 1018.15 1018.19 1018.19 1018.27 1018.55 1018.67 1018.63 1018.75 1018.75 1018.67 1018.79 1018.79 1018.79 1018.83 1018.95 1019.03 1019.03 1019.03 1018.99 1018.91 1018.79 1018.87 1019.03 1019.03 1019.07 1019.23 1019.35 1019.35 1019.43 1019.63 1020.15 1020.35 1020.43 1020.11 1020.43 1020.47 1020.47 1020.51 1020.67 1020.43 1020.27 1020.27 1020.03 1020.83 1021.11 1022.19 1022.75 1022.23
1014.55 1014.79 1015.11 1015.43 1015.75 1015.95 1016.15 1016.47 1016.75 1016.91 1017.27 1017.27 1017.67 1017.99 1018.07 1018.19 1018.39 1018.43 1018.71 1018.71 1018.67 1018.71 1018.91 1018.95 1018.87 1018.99 1018.99 1018.91 1018.99 1019.07 1019.11 1019.15 1019.11 1019.03 1018.87 1018.99 1019.03 1019.11 1019.35 1019.47 1019.63 1019.71 1019.79 1019.79 1019.75 1019.95 1020.27 1020.23 1020.03 1020.27 1020.59 1020.63 1020.43 1020.39 1020.43 1020.39 1020.27 1020.07 1020.91 1021.99 1022.51 1022.83
1014.75 1014.87 1015.15 1015.51 1015.71 1015.91 1016.15 1016.43 1016.71 1016.99 1017.39 1017.67 1017.83 1018.03 1018.07 1018.43 1018.51 1018.51 1018.71 1018.83 1018.87 1018.87 1018.91 1019.11 1019.15 1019.11 1019.07 1019.03 1019.11 1019.07 1019.15 1019.23 1019.27 1019.19 1019.11 1019.23 1019.31 1019.35 1019.43 1019.51 1019.55 1019.63 1019.71 1019.95 1019.83 1019.75 1019.75 1019.79 1019.79 1020.03 1020.15 1020.19 1020.43 1020.47 1020.51 1020.71 1020.79 1020.55 1020.47 1020.71 1021.95 1022.59
1014.91 1015.07 1015.27 1015.51 1015.71 1016.03 1016.15 1016.39 1016.71 1017.07 1017.39 1017.67 1017.95 1018.15 1018.47 1018.71 1018.59 1018.59 1018.71 1018.79 1018.79 1018.87 1018.83 1018.99 1019.15 1019.23 1019.27 1019.23 1019.31 1019.19 1019.31 1019.35 1019.35 1019.39 1019.35 1019.35 1019.35 1019.39 1019.51 1019.55 1019.59 1019.63 1019.79 1019.91 1019.95 1019.91 1019.91 1019.91 1019.99 1020.27 1020.19 1019.99 1020.11 1020.19 1020.47 1020.79 1020.87 1020.67 1020.75 1021.27 1021.59 1022.15
1015.31 1015.39 1015.31 1015.51 1015.79 1015.99 1016.19 1016.43 1016.63 1016.91 1017.23 1017.43 1017.75 1018.11 1018.43 1018.71 1018.71 1018.71 1018.75 1018.83 1018.79 1018.91 1019.03 1019.11 1019.19 1019.27 1019.43 1019.39 1019.35 1019.39 1019.43 1019.43 1019.47 1019.55 1019.55 1019.47 1019.51 1019.51 1019.51 1019.55 1019.67 1019.71 1019.79 1019.87 1019.95 1020.07 1020.15 1020.35 1020.39 1020.23 1020.31 1020.07 1020.03 1020.03 1020.15 1020.23 1020.27 1020.43 1020.71 1020.95 1021.31 1021.63
1016.15 1015.59 1015.63 1015.67 1015.87 1016.15 1016.43 1016.67 1016.83 1016.99 1017.15 1017.27 1017.51 1017.75 1018.07 1018.39 1018.43 1018.63 1018.67 1018.79 1018.87 1018.99 1019.07 1019.19 1019.31 1019.43 1019.59 1019.55 1019.47 1019.59 1019.51 1019.59 1019.67 1019.75 1019.75 1019.71 1019.75 1019.79 1019.71 1019.67 1019.79 1019.87 1019.95 1019.99 1020.07 1020.11 1020.27 1020.43 1020.39 1020.59 1020.63 1020.59 1020.39 1020.27 1020.35 1020.19 1020.15 1020.39 1020.47 1020.67 1021.19 1021.75
1018.07 1017.31 1016.51 1016.23 1016.47 1016.75 1016.87 1016.83 1016.83 1016.95 1017.15 1017.27 1017.59 1017.71 1017.83 1018.11 1018.27 1018.31 1018.47 1018.79 1018.75 1018.87 1019.03 1019.23 1019.39 1019.51 1019.59 1019.59 1019.63 1019.71 1019.75 1019.87 1019.87 1019.91 1019.99 1020.07 1020.07 1020.03 1019.91 1019.79 1020.03 1020.15 1020.23 1020.19 1020.19 1020.31 1020.39 1020.51 1020.47 1020.47 1020.31 1020.35 1020.35 1020.39 1020.43 1020.31 1020.39 1020.43 1020.75 1020.99 1021.27 1021.43
1018.95 1019.03 1018.23 1017.11 1016.75 1016.71 1016.63 1016.67 1016.63 1016.71 1016.99 1017.11 1017.47 1017.71 1017.79 1017.95 1018.23 1018.39 1018.39 1018.63 1018.71 1018.75 1018.91 1019.11 1019.35 1019.63 1019.75 1019.83 1019.87 1019.87 1019.95 1020.03 1020.15 1020.23 1020.27 1020.31 1020.27 1020.27 1020.23 1020.03 1020.31 1020.47 1020.43 1020.39 1020.47 1020.47 1020.63 1020.67 1020.75 1020.71 1020.67 1020.59 1020.67 1020.63 1020.55 1020.47 1020.47 1020.43 1020.39 1020.67 1020.91 1021.31
1017.79 1018.15 1018.63 1017.91 1016.83 1016.27 1015.95 1015.91 1016.35 1016.95 1017.23 1017.31 1017.47 1017.71 1017.83 1018.07 1018.27 1018.43 1018.59 1018.59 1018.79 1018.87 1018.91 1019.11 1019.35 1019.63 1019.83 1019.87 1019.99 1020.07 1020.15 1020.27 1020.31 1020.39 1020.43 1020.43 1020.39 1020.35 1020.51 1020.47 1020.55 1020.75 1020.83 1020.71 1020.87 1020.91 1020.87 1020.95 1021.07 1021.07 1020.99 1020.87 1020.75 1020.91 1020.87 1020.79 1020.67 1020.83 1020.67 1020.83 1020.99 1021.31
1017.23 1017.87 1017.79 1017.27 1016.43 1016.23 1016.39 1016.47 1016.63 1016.87 1017.19 1017.47 1017.67 1017.87 1017.99 1018.27 1018.35 1018.39 1018.47 1018.55 1018.79 1018.99 1019.15 1019.19 1019.47 1019.63 1019.87 1019.91 1019.95 1020.07 1020.27 1020.39 1020.51 1020.55 1020.63 1020.63 1020.63 1020.67 1020.67 1020.67 1020.83 1021.03 1021.11 1020.99 1020.99 1021.15 1021.11 1021.15 1021.31 1021.23 1021.27 1021.23 1021.15 1021.23 1021.27 1021.23 1021.19 1021.27 1021.31 1021.27 1021.19 1021.27
Wind_Speed
11 9 11 8 5 9 10 12 12 13 14 14 14 14 12 12 12 12 11 10 9 8 7 7 8 8 10 8 10 10 10 10 10 9 10 10 10 10 10 10 9 8 7 6 6 6 5 3 2 3 1 5 7 7 3 3 3 2 2 6 3 9
9 10 8 6 6 7 8 6 9 8 8 11 11 13 11 9 10 9 10 9 6 6 6 6 6 7 7 10 9 10 10 9 9 9 9 9 9 10 10 10 9 7 5 4 6 5 6 6 3 1 3 5 7 4 4 3 1 2 3 3 6 9
10 6 6 9 9 7 7 7 7 8 6 8 10 10 9 8 7 8 7 6 5 5 5 5 6 5 6 8 9 9 9 9 9 9 9 9 9 9 10 10 8 6 4 6 7 3 4 6 5 6 6 7 6 4 4 3 2 2 2 4 8 10
10 7 1 3 6 5 7 7 7 7 7 6 8 7 8 7 6 6 5 5 4 5 5 4 5 8 8 7 7 9 9 9 9 9 10 9 10 10 11 10 9 8 8 6 2 4 3 3 4 5 5 5 5 4 5 4 3 2 4 1 9 9
9 8 9 5 7 7 8 7 7 6 6 5 6 7 6 6 5 6 5 4 5 5 5 5 6 5 5 5 7 6 6 6 6 7 10 5 7 7 8 7 7 7 2 2 2 1 2 2 3 4 3 4 5 5 4 3 2 2 3 5 8 8
8 7 6 7 6 6 4 3 4 3 4 1 0 5 4 5 5 5 4 4 4 4 4 5 5 4 3 4 4 5 5 5 5 5 6 5 4 5 6 6 4 4 3 3 2 2 2 2 2 2 4 3 5 5 4 4 3 2 3 5 8 7
9 7 7 8 8 7 5 4 1 1 4 6 2 2 3 3 4 4 4 4 4 4 5 5 5 5 4 4 4 4 4 4 4 4 4 4 4 4 4 4 4 4 4 4 4 4 4 4 2 3 3 4 4 4 2 2 3 2 3 5 8 8
10 9 8 8 9 9 6 6 5 3 2 3 4 1 4 3 4 4 4 4 4 4 5 5 4 6 5 4 4 3 4 4 4 4 4 4 5 4 4 5 5 6 6 5 5 5 4 4 5 4 3 4 4 4 3 3 2 2 3 4 7 8
10 10 8 7 7 6 7 6 4 5 4 2 4 3 5 3 3 4 4 4 5 4 3 2 1 2 4 3 3 3 3 3 4 4 4 3 3 4 5 5 5 5 5 4 4 4 5 5 4 4 4 5 5 4 5 4 4 4 3 3 5 8
9 9 8 8 7 2 4 8 7 7 3 5 6 8 6 4 3 3 4 3 4 2 3 3 3 5 3 4 2 2 3 2 3 3 4 3 3 4 4 4 5 5 5 4 4 4 4 5 5 4 4 4 4 4 4 4 4 3 4 3 5 7
9 7 6 8 9 6 4 4 6 5 10 8 5 3 3 2 2 1 1 1 5 4 1 2 5 4 5 4 2 3 5 4 2 5 6 2 2 4 1 4 4 5 5 4 4 4 4 4 5 5 5 5 4 5 4 3 3 3 3 4 4 6
8 6 7 7 7 9 5 5 9 10 5 4 3 3 3 2 2 2 6 4 3 3 6 3 2 4 3 1 2 4 5 3 1 3 1 3 1 3 4 2 4 4 4 4 4 4 3 4 4 4 4 4 5 4 4 4 4 4 4 4 4 4
9 6 6 7 6 8 9 8 6 4 5 4 3 2 2 1 1 7 3 3 6 6 6 3 4 5 3 3 3 3 4 4 4 3 3 2 5 2 2 2 5 4 5 4 3 4 3 0 3 3 4 5 4 4 4 5 4 4 5 4 4 4
10 7 8 7 5 5 5 5 5 4 4 4 2 2 2 1 2 4 2 1 3 6 2 4 6 1 3 3 3 3 4 3 2 3 6 6 3 4 3 5 5 5 5 4 5 4 4 3 1 2 2 3 3 2 3 3 4 4 3 3 3 3
11 11 10 8 7 5 4 2 3 3 3 2 3 2 3 1 1 2 3 1 2 7 9 9 4 3 4 5 5 4 4 4 5 6 2 1 5 9 9 5 4 5 5 3 3 3 4 4 3 3 2 1 0 2 2 1 3 4 3 2 2 2
10 11 9 8 6 4 3 2 2 4 4 4 3 3 4 3 1 2 3 4 3 5 7 6 4 4 4 4 3 3 3 3 2 3 1 2 5 2 2 2 3 1 4 3 4 4 3 4 3 2 1 1 1 1 2 1 2 2 1 2 3 2
11 11 9 7 6 4 3 3 3 3 4 4 3 3 3 3 3 2 1 4 4 4 4 4 2 2 3 3 3 2 2 2 2 3 1 0 2 5 1 3 2 1 3 3 4 4 3 3 3 3 2 3 2 2 2 1 1 0 2 7 10 7
9 9 7 7 6 4 3 2 3 4 5 3 3 2 2 1 2 1 1 3 4 3 3 2 3 4 3 2 2 0 2 1 2 2 1 2 0 2 1 1 3 3 3 3 3 4 5 3 3 4 4 3 2 1 1 1 2 1 4 4 2 1
6 7 7 7 6 6 5 5 4 4 4 3 2 2 2 2 2 1 2 3 3 3 3 2 3 3 2 2 2 2 1 1 2 2 2 2 1 1 1 0 2 3 2 4 3 2 3 4 4 4 4 3 2 2 1 1 2 2 3 2 2 2
5 7 8 7 6 6 5 5 5 4 4 3 2 2 2 3 2 2 3 2 3 3 3 2 2 2 3 2 2 2 2 2 2 2 2 3 2 2 1 3 3 3 4 3 3 4 5 5 5 4 4 3 2 2 1 1 0 1 4 4 3 2
9 7 7 7 6 6 6 5 4 5 4 5 3 4 3 3 2 4 2 2 2 3 2 2 2 2 2 3 2 2 3 3 2 2 2 4 2 2 4 5 3 3 5 4 4 3 4 4 5 5 4 4 3 2 2 2 1 2 2 2 1 2
8 8 8 8 7 7 6 5 5 5 4 5 5 4 4 4 4 4 4 3 2 3 3 3 2 3 2 2 1 1 1 1 2 3 2 3 2 3 3 3 3 4 4 4 4 4 4 5 6 5 7 6 5 4 3 3 2 2 1 2 1 1
9 9 8 8 7 7 6 5 4 5 5 5 4 3 4 5 5 5 4 3 3 3 3 3 4 4 3 2 2 2 1 1 2 2 3 3 3 3 3 4 5 4 4 3 3 4 5 6 4 5 4 4 6 7 6 5 3 3 2 2 1 2
9 9 9 9 8 7 6 6 4 6 4 4 5 5 6 5 5 5 5 3 3 2 2 2 3 3 2 3 2 2 3 3 2 2 2 3 3 4 4 4 4 4 4 5 4 4 5 4 4 5 5 5 4 4 3 6 5 4 3 3 2 3
9 10 9 10 9 8 8 8 6 7 7 7 6 5 5 5 4 4 3 3 3 1 2 3 3 3 3 3 1 1 1 1 2 3 3 3 3 4 4 4 5 5 6 4 4 5 5 4 4 4 4 3 3 5 4 5 7 5 2 4 4 5
9 10 10 11 10 9 9 8 8 8 7 6 6 5 5 5 5 4 4 3 3 2 2 3 2 2 3 3 3 2 1 1 1 1 1 2 3 4 4 4 5 5 6 4 4 4 5 4 4 5 5 2 3 2 1 7 6 5 4 4 3 4
11 9 9 11 11 9 9 8 8 8 7 6 6 5 4 5 4 4 4 3 4 2 2 3 2 2 3 3 3 3 2 0 1 1 1 2 2 3 4 5 5 5 4 5 5 5 5 4 4 4 5 4 3 3 3 7 5 7 7 5 5 4
10 9 10 10 11 9 8 8 8 6 6 6 6 6 6 5 4 4 5 4 4 4 2 3 3 2 2 3 3 2 2 2 1 1 1 2 2 2 2 3 3 3 3 4 5 4 5 5 5 4 4 4 4 3 4 3 3 6 5 7 6 6
10 9 10 11 10 9 8 8 7 6 6 6 6 6 5 5 5 5 6 4 3 4 3 2 1 3 2 3 2 2 2 2 1 1 1 2 2 3 3 3 4 3 4 4 5 5 7 5 5 4 5 5 5 4 5 4 3 2 6 7 7 7
10 8 10 11 10 9 9 8 6 7 8 7 6 6 5 6 6 6 7 6 5 4 4 3 2 2 2 3 3 2 2 2 2 2 2 3 3 3 2 3 3 4 4 5 3 3 4 4 4 4 4 4 4 4 5 4 5 5 6 5 6 8
9 8 10 10 10 9 9 7 6 8 8 9 9 7 7 6 6 6 6 6 5 4 2 3 2 3 2 3 2 3 2 3 3 3 3 2 2 2 2 2 2 3 4 4 4 4 4 4 3 4 5 4 4 5 5 5 6 5 4 5 7 7
10 10 11 11 10 9 8 7 7 8 8 9 9 7 8 7 7 7 7 6 5 4 3 3 3 3 3 2 2 3 2 3 4 3 3 3 3 2 2 2 2 2 3 4 4 4 4 5 4 4 4 2 2 2 2 3 4 4 5 4 5 6
8 10 11 11 10 9 8 7 7 7 7 7 7 8 8 7 7 6 6 6 5 4 3 4 3 4 4 3 2 3 2 3 4 4 3 3 4 4 3 2 3 3 3 3 3 4 5 5 5 5 4 4 4 4 4 2 3 3 3 4 5 5
10 4 4 6 8 8 6 5 6 6 6 6 6 6 6 7 7 6 6 6 6 5 4 4 4 4 4 3 4 4 4 5 5 5 5 4 4 4 2 3 4 4 5 4 4 5 5 5 4 4 4 3 3 3 4 3 3 3 4 4 5 5
6 12 10 6 8 9 7 6 7 7 7 6 6 6 5 6 6 6 5 5 5 5 5 5 5 4 3 4 5 5 5 5 5 5 4 4 4 4 2 4 4 4 4 4 5 5 5 6 4 4 4 4 4 4 3 3 2 2 3 2 3 4
8 9 7 5 8 10 11 9 8 7 6 5 5 5 6 6 5 5 5 5 6 5 5 5 5 5 4 4 6 6 6 6 5 5 4 4 3 4 3 3 4 4 4 3 4 4 4 4 4 5 4 4 4 5 4 4 3 3 3 2 3 4
9 8 10 12 12 8 3 6 9 9 7 6 7 7 6 7 7 7 6 5 5 5 6 6 6 5 5 5 6 6 6 6 6 5 4 4 3 4 3 3 4 4 4 3 3 4 3 4 4 4 4 4 5 5 5 4 5 4 4 2 3 3
Wind_Direction
156 183 160 147 128 146 152 139 129 130 137 138 146 147 144 142 140 136 138 134 151 147 139 134 156 135 143 135 109 124 123 125 128 128 126 124 122 120 118 118 114 110 118 124 123 116 101 93 63 354 14 199 182 212 168 118 149 139 124 129 155 93
150 154 122 125 176 158 153 136 133 136 144 146 151 148 153 153 151 141 135 152 154 145 152 152 137 146 142 138 134 126 127 128 129 131 128 132 130 128 128 122 121 119 119 167 203 181 153 137 140 181 226 176 210 192 146 153 162 113 111 116 99 104
134 125 170 185 169 154 138 160 148 145 149 162 161 160 160 155 153 150 162 154 150 150 163 145 146 165 127 106 120 129 128 130 133 135 143 138 143 138 135 125 119 124 147 220 222 162 185 166 155 165 186 199 198 184 143 141 146 121 95 47 93 100
139 136 201 131 104 144 156 149 155 162 149 194 169 162 156 158 158 158 150 147 156 151 149 135 110 122 138 141 127 134 137 138 141 152 151 163 152 151 142 138 141 163 199 203 133 189 177 188 167 185 189 191 190 158 159 162 172 123 91 159 86 95
129 145 172 148 134 149 153 163 168 172 177 172 175 157 158 161 156 154 159 163 155 155 154 145 153 159 174 150 152 152 162 166 171 157 187 182 181 157 177 164 159 191 142 136 164 108 240 159 192 196 171 185 171 167 170 158 131 131 111 85 96 99
129 153 152 152 143 120 121 124 160 162 152 155 19 158 154 162 156 157 167 159 143 160 162 149 166 168 150 163 169 168 179 165 172 159 190 187 179 179 169 189 173 154 152 138 148 167 186 212 179 205 168 178 163 168 185 158 131 117 102 110 114 107
148 157 162 157 134 138 164 134 59 139 135 135 234 259 177 168 158 159 160 157 159 172 174 159 173 177 168 182 177 178 178 166 181 179 188 188 176 183 190 158 155 152 154 161 161 161 181 180 202 177 178 174 154 165 170 144 137 139 104 108 117 119
147 161 168 161 142 164 153 136 142 161 170 158 162 239 246 164 157 173 167 166 178 185 181 172 180 191 170 196 182 187 179 177 189 192 182 192 177 177 174 168 168 165 168 160 161 173 170 165 175 177 160 162 163 164 165 150 121 104 117 116 125 129
158 163 165 156 136 135 151 137 157 163 200 178 167 165 240 158 173 187 178 182 184 187 208 279 94 308 170 195 188 197 193 193 200 204 183 206 183 173 175 175 169 170 162 154 152 168 170 170 173 161 161 157 163 170 155 160 156 147 124 113 129 127
162 168 158 136 103 121 156 148 157 160 233 195 189 190 196 177 187 190 179 195 187 183 341 317 170 229 176 202 199 203 231 239 240 210 208 200 183 187 171 173 171 169 153 161 158 155 177 168 165 162 160 156 156 164 159 169 154 158 126 126 116 129
165 153 163 155 145 177 183 154 150 175 186 208 163 166 163 183 189 177 145 144 23 353 255 347 2 346 327 287 214 14 315 295 274 352 302 257 28 4 303 164 177 164 153 164 150 153 187 171 164 165 169 166 163 168 167 155 165 144 145 136 134 139
144 159 183 161 155 148 155 203 189 205 173 153 140 168 161 182 194 89 30 4 39 49 42 25 304 252 232 280 340 206 228 226 240 206 3 22 10 217 264 196 166 165 151 162 151 156 174 171 169 162 165 167 166 176 173 178 179 166 162 146 137 129
145 150 183 166 177 167 183 185 167 166 142 140 167 140 152 173 88 65 48 43 48 54 69 20 252 245 278 277 254 238 224 224 218 184 177 219 227 278 265 220 161 161 163 164 155 146 147 340 188 157 187 161 184 187 170 182 176 175 164 155 155 144
141 157 198 176 171 190 176 166 161 141 126 147 123 120 109 116 94 107 126 125 97 84 54 236 247 206 241 237 244 251 248 241 243 218 200 196 132 249 233 213 159 171 160 168 158 154 144 171 176 202 210 180 189 163 197 176 165 177 165 158 158 149
154 177 185 175 178 185 179 157 137 124 123 124 126 139 116 121 119 111 117 185 175 142 184 219 221 189 221 226 227 220 236 215 215 232 193 171 206 184 202 172 174 168 164 164 152 152 157 148 173 189 177 277 189 184 230 194 164 201 177 149 149 158
173 171 180 169 173 172 146 143 96 127 127 136 143 143 130 128 70 127 134 151 187 172 195 216 204 193 206 219 232 226 228 237 244 297 215 173 259 273 136 183 137 146 157 174 170 161 156 146 165 151 119 212 231 273 257 229 192 240 181 178 164 150
175 173 166 162 161 149 143 141 142 107 107 109 102 79 79 98 135 82 128 134 163 191 230 224 208 182 185 206 214 233 199 235 211 199 242 6 162 249 245 121 193 153 187 191 192 162 159 155 154 142 116 66 31 20 326 21 205 296 63 34 12 25
166 164 158 157 147 135 126 124 116 94 74 73 73 90 110 91 88 92 91 95 126 170 228 209 172 168 165 180 194 173 347 296 249 222 171 191 182 291 164 218 155 181 196 203 202 181 162 163 154 152 132 103 73 42 26 29 33 26 66 78 155 74
183 147 146 137 133 113 103 82 76 102 119 121 120 95 98 107 87 116 108 120 128 158 207 214 182 152 159 169 183 165 196 257 244 238 194 212 206 146 278 228 175 179 214 220 201 150 134 149 146 138 133 137 137 71 29 25 358 52 60 116 164 197
223 151 137 138 141 134 138 159 153 144 143 128 126 119 131 102 136 113 111 122 141 159 168 197 178 154 160 158 174 169 199 221 227 311 279 272 209 191 179 225 210 200 203 200 198 155 161 163 138 137 137 140 142 133 68 23 189 152 149 199 203 209
178 149 151 154 154 152 162 161 166 168 148 142 137 130 124 112 106 78 63 104 117 127 137 134 151 142 143 143 162 165 187 195 173 197 207 255 208 186 193 223 190 207 207 206 178 170 165 177 158 156 157 163 159 152 124 127 119 128 112 136 152 175
158 163 161 160 153 165 172 174 168 154 142 137 140 153 130 124 105 107 105 88 108 119 118 118 113 116 104 112 122 153 211 167 171 192 184 198 184 165 178 188 191 195 221 214 192 187 178 195 185 185 166 158 158 146 125 126 129 84 97 113 130 131
164 171 164 160 164 170 170 156 164 134 149 131 105 92 105 100 116 113 103 99 93 100 124 120 116 116 122 140 152 160 177 151 173 159 182 178 173 173 187 181 189 205 195 216 208 187 194 209 223 175 187 178 170 185 148 155 114 94 111 99 111 123
165 174 163 165 176 162 148 137 132 133 117 128 121 109 106 114 107 116 116 111 95 109 102 105 106 127 121 119 166 166 163 169 159 176 192 180 172 177 180 181 185 198 212 192 190 197 208 204 281 170 192 210 187 152 158 178 141 113 116 116 130 114
173 170 166 161 170 153 147 153 134 122 115 110 124 134 139 128 123 112 119 130 112 125 131 111 110 108 102 91 66 64 65 134 165 170 190 169 167 163 171 185 182 198 203 220 192 191 199 212 241 266 306 209 156 190 187 157 133 111 132 120 97 87
179 172 165 165 165 161 167 157 152 153 154 156 146 154 147 140 146 149 111 102 123 123 113 104 107 86 88 109 111 97 94 257 182 185 181 170 160 152 162 180 192 201 204 199 192 190 188 191 228 234 249 351 303 349 232 150 179 131 109 83 89 102
182 172 168 166 166 173 165 161 162 161 155 151 142 133 120 132 131 119 119 128 110 131 134 130 101 88 94 94 98 109 120 160 116 163 199 214 184 183 179 179 173 206 179 160 198 204 181 174 188 221 231 247 284 202 235 162 192 134 140 125 95 96
178 174 171 167 169 176 162 165 167 160 147 146 144 135 140 128 119 122 121 129 131 134 151 130 122 100 99 98 92 106 116 110 123 131 184 184 181 176 171 133 151 180 181 174 177 209 193 187 201 172 204 214 218 227 211 225 227 178 153 149 134 92
169 166 170 167 171 168 164 167 168 153 149 133 132 136 140 137 133 128 128 129 121 117 122 93 81 109 102 85 93 90 103 135 116 98 113 103 102 86 90 123 148 174 170 198 212 194 190 199 204 169 184 190 200 189 176 190 207 237 146 146 133 121
155 153 161 165 168 162 162 166 169 156 142 131 133 136 143 142 141 145 133 136 137 142 130 138 127 106 101 99 77 80 112 111 107 101 84 80 88 88 96 132 152 165 165 169 187 214 198 177 197 156 214 173 188 164 169 165 184 196 166 160 139 142
145 141 154 163 166 157 157 168 161 150 149 138 142 144 143 153 149 149 139 140 142 126 130 114 132 123 99 92 79 55 75 100 101 93 92 101 70 75 109 121 130 148 160 169 176 177 184 173 176 174 205 189 179 181 172 174 179 190 175 160 141 144
133 135 152 162 160 151 153 157 149 153 154 144 146 151 152 154 158 148 144 141 132 135 131 123 136 124 112 78 78 77 90 115 103 92 82 63 68 79 70 88 128 147 139 149 145 163 161 159 177 169 194 179 220 190 200 206 176 187 188 166 158 153
123 140 150 158 154 147 143 143 143 152 155 149 153 152 151 152 153 150 149 142 142 136 138 141 134 122 99 92 93 105 96 110 109 90 68 64 72 55 49 79 95 103 116 125 134 144 156 160 168 160 183 168 192 159 144 124 151 160 145 140 152 163
18 357 125 123 116 112 112 125 141 155 162 156 153 154 152 152 156 150 145 144 143 136 139 130 128 105 104 99 82 78 82 83 78 77 71 71 70 68 46 105 85 86 85 81 92 108 113 128 128 135 140 131 110 108 80 75 87 110 134 160 161 162
27 337 346 91 113 127 135 145 163 172 173 160 157 157 157 148 151 144 136 140 127 136 136 137 124 109 104 96 100 95 88 85 81 78 80 82 93 94 66 104 84 75 74 84 88 95 99 106 108 95 72 79 95 90 87 91 86 97 141 148 154 155
185 190 217 205 155 164 172 169 161 150 163 161 149 158 152 147 142 141 143 140 126 133 134 130 118 120 114 111 107 109 102 92 88 86 84 86 91 92 81 85 89 85 86 81 91 95 106 97 84 84 88 92 98 89 90 93 103 73 67 94 119 145
219 191 198 201 186 185 157 141 149 157 162 156 155 166 153 151 152 148 144 132 129 132 135 137 129 126 125 118 114 105 103 99 94 92 92 89 89 89 86 85 88 92 85 75 72 69 63 83 88 91 90 87 91 97 84 75 78 91 93 116 127 157